Showing default

ESSA 2 (OT-2), 2091

Orbit data source: Space-Track

ESSA 2 (OT-2), 2091 is a payload satellite owned by ESSA (US) in SSO that was launched on Mon, 28 Feb 1966 UTC via a THOR DELTA E launch vehicle from the Air Force Eastern Test Range (AFETR). Payload-class satellites include a variety of spacecraft equipped with specific instruments for various scientific and technological missions. These include communications satellites like Starlink; space stations such as the ISS; scientific satellites like the Hubble; Earth observation satellites from companies like Planet Labs, Umbra, and HawkEye 360; GPS; miniature CubeSats for education and research; and military/defense satellites.

Loading next visibility...
Identifier
2091, 1966-016A
Orbit
SSO
Country
Flag of USUS
Related business
Manufacturer
RCA/East Windsor
Mission
Non-operational spacecraft
Bus & Motor
TIROS I, Unknown motor
Mass
130 kg wet, 130 kg dry
Launch date (UTC)
1966-02-28 (60 years ago)
Launch vehicle
THOR DELTA E
Launch site
Air Force Eastern Test Range (AFETR)
Object type
Payload
Rocket body
Debris
Shape & HBR
Unknown
Radar Cross Section
Medium (>0.1 m² and <1 m²)

Expand to show TLE details & history
Last TLE update: 12 hours ago

TLE from 12 hours ago
0 ESSA 2 (OT-2)
1 02091U 66016A   25310.31628317 -.00000029  00000-0  73748-4 0  9998
2 02091 101.2371 219.9944 0038907 349.4382 132.5106 12.69426120765343
Epoch: 2025-11-06T07:35Z
TLE epoch observation values (Epoch: 2025-11-06T07:35:26.865Z)
Latitude
56.11849°
Longitude
-102.52171°
Altitude
1,413.933 km
Speed
7.149 km/s
True Right ascension
03h 48m 27s
True Declination
55° 58' 21"
Sunlit
Object was in full shadow at epoch
Visualization orbit readout
Latitude
Unknown
Longitude
Unknown
Altitude
Unknown
Speed
Unknown
Apparent Right ascension
Unknown
Apparent Declination
Unknown
Sunlit
N/A
Visualization observer readout
Local Sidereal Time
15:25:39
Azimuth
Unknown
Elevation
Unknown
Doppler factor
Unknown
Orbital elements
Apogee altitude
1,411.962 km
Perigee altitude
1,351.579 km
Semi-major axis
7,759.907 km
Eccentricity
0.00389
Inclination
101.2371°
RAAN
219.9944°
Arg. of periapsis
349.4382°
True anomaly
132.83817°
Mean anomaly
132.5106°
Eccentric anomaly
132.67449°
Mean motion
3.17511 °/min
Orbital period
113.38 mins
BSTAR
0.000073748
Loading maneuver chart data...
Computing Atmospheric mass density...
Loading historical data...
Loading historical data...
Loading historical data...
Loading historical data...
Loading historical data...
Loading historical data...
Loading historical data...
Other satellites on launch #16 in the year 1966 (1966-02-28 UTC)

Documentation

Showing up to 5 results
|